�������l�o���
Date,Time,MP-1(��Sv/h),MP-2(��Sv/h),MP-3(��Sv/h),MP-4(��Sv/h),MP-5(��Sv/h),MP-6(��Sv/h),MP-7(��Sv/h),MP-8(��Sv/h),����,����(m/s),���J
2015/03/19,00:00,1.920,3.472,3.813,3.418,3.640,1.078,1.797,1.737,�k,3.0,��
2015/03/19,00:10,1.918,3.472,3.815,3.418,3.642,1.077,1.793,1.735,�k,3.7,��
2015/03/19,00:20,1.915,3.472,3.815,3.417,3.637,1.078,1.797,1.735,�k,3.7,��
2015/03/19,00:30,1.915,3.473,3.815,3.418,3.640,1.078,1.798,1.735,�k,3.6,��
2015/03/19,00:40,1.915,3.472,3.817,3.420,3.637,1.078,1.798,1.735,�k,3.3,��
2015/03/19,00:50,1.920,3.472,3.815,3.423,3.638,1.077,1.795,1.737,�k,3.3,��
2015/03/19,01:00,1.917,3.473,3.817,3.422,3.637,1.077,1.795,1.733,�k,2.8,��
2015/03/19,01:10,1.917,3.475,3.813,3.420,3.637,1.077,1.795,1.738,�k,3.3,��
2015/03/19,01:20,1.920,3.475,3.817,3.417,3.635,1.078,1.795,1.738,�k,3.2,��
2015/03/19,01:30,1.918,3.477,3.815,3.420,3.633,1.078,1.795,1.737,�k,2.4,�L
2015/03/19,01:40,1.918,3.473,3.817,3.420,3.638,1.078,1.793,1.737,�k,2.5,��
2015/03/19,01:50,1.920,3.477,3.813,3.422,3.635,1.080,1.795,1.735,�k,2.3,�L
2015/03/19,02:00,1.918,3.472,3.813,3.418,3.637,1.078,1.795,1.735,�k,3.2,�L
2015/03/19,02:10,1.918,3.467,3.807,3.417,3.633,1.078,1.797,1.737,�k,2.8,�L
2015/03/19,02:20,1.920,3.455,3.803,3.415,3.627,1.077,1.792,1.735,�k,2.7,�L
2015/03/19,02:30,1.917,3.448,3.792,3.412,3.613,1.078,1.792,1.733,�k,2.9,�L
2015/03/19,02:40,1.910,3.435,3.775,3.400,3.590,1.077,1.788,1.733,�k,2.3,�L
2015/03/19,02:50,1.910,3.408,3.753,3.390,3.570,1.075,1.787,1.732,���k��,0.8,�L
2015/03/19,03:00,1.903,3.375,3.718,3.372,3.537,1.070,1.778,1.727,��,0.7,�L
2015/03/19,03:10,1.888,3.327,3.683,3.342,3.497,1.067,1.773,1.723,-,CALM,�L
2015/03/19,03:20,1.880,3.300,3.668,3.317,3.477,1.067,1.767,1.720,�k,2.4,�L
2015/03/19,03:30,1.875,3.288,3.657,3.308,3.468,1.065,1.767,1.718,-,CALM,�L
2015/03/19,03:40,1.872,3.285,3.652,3.303,3.458,1.062,1.762,1.717,�k,3.0,�L
2015/03/19,03:50,1.863,3.275,3.638,3.292,3.453,1.063,1.762,1.715,�k,3.4,�L
2015/03/19,04:00,1.858,3.265,3.627,3.283,3.442,1.060,1.760,1.715,�k��,1.4,�L
2015/03/19,04:10,1.848,3.250,3.607,3.267,3.422,1.057,1.757,1.708,�k��,3.8,�L
2015/03/19,04:20,1.842,3.222,3.592,3.248,3.400,1.053,1.752,1.710,��쓌,3.0,�L
2015/03/19,04:30,1.837,3.218,3.583,3.243,3.392,1.050,1.752,1.710,�k,2.0,�L
2015/03/19,04:40,1.838,3.223,3.583,3.242,3.390,1.050,1.748,1.710,�k,4.5,�L
2015/03/19,04:50,1.838,3.222,3.578,3.240,3.382,1.050,1.747,1.707,�k�k��,3.5,�L
2015/03/19,05:00,1.835,3.218,3.572,3.235,3.373,1.050,1.747,1.707,�k,2.7,�L
2015/03/19,05:10,1.832,3.215,3.568,3.228,3.365,1.047,1.742,1.705,�k�k��,4.2,�L
2015/03/19,05:20,1.832,3.218,3.578,3.232,3.363,1.045,1.742,1.707,�k,4.7,�L
2015/03/19,05:30,1.830,3.222,3.577,3.227,3.367,1.047,1.742,1.703,�k,5.2,�L
2015/03/19,05:40,1.828,3.212,3.570,3.222,3.363,1.045,1.740,1.703,�k,4.9,�L
2015/03/19,05:50,1.828,3.210,3.570,3.218,3.363,1.043,1.742,1.702,�k�k��,4.5,�L
2015/03/19,06:00,1.828,3.217,3.568,3.215,3.362,1.043,1.742,1.707,�k�k��,5.8,�L
2015/03/19,06:10,1.833,3.220,3.570,3.220,3.360,1.042,1.742,1.705,�k�k��,5.5,�L
2015/03/19,06:20,1.832,3.215,3.568,3.220,3.360,1.040,1.742,1.705,�k�k��,5.5,�L
2015/03/19,06:30,1.832,3.212,3.562,3.220,3.353,1.040,1.738,1.705,�k�k��,6.0,�L
2015/03/19,06:40,1.828,3.217,3.562,3.213,3.348,1.038,1.738,1.703,�k�k��,5.6,�L
2015/03/19,06:50,1.827,3.220,3.562,3.215,3.353,1.033,1.738,1.702,�k�k��,7.1,�L
2015/03/19,07:00,1.830,3.227,3.570,3.220,3.362,1.033,1.738,1.703,�k�k��,7.2,�L
2015/03/19,07:10,1.832,3.228,3.573,3.222,3.363,1.030,1.738,1.703,�k�k��,7.1,�L
2015/03/19,07:20,1.832,3.230,3.575,3.222,3.367,1.030,1.740,1.703,�k�k��,8.2,�L
2015/03/19,07:30,1.832,3.235,3.577,3.225,3.368,1.028,1.738,1.707,�k�k��,6.8,�L
2015/03/19,07:40,1.833,3.232,3.580,3.225,3.367,1.023,1.738,1.703,�k�k��,7.4,�L
2015/03/19,07:50,1.832,3.235,3.580,3.225,3.368,1.022,1.740,1.707,�k�k��,7.5,�L
2015/03/19,08:00,1.833,3.235,3.583,3.222,3.373,1.022,1.740,1.705,�k�k��,8.6,��
2015/03/19,08:10,1.833,3.242,3.583,3.225,3.380,1.020,1.743,1.705,�k�k��,8.2,��
2015/03/19,08:20,1.835,3.247,3.588,3.230,3.383,1.022,1.743,1.705,�k�k��,7.8,��
2015/03/19,08:30,1.837,3.248,3.590,3.235,3.385,1.022,1.743,1.705,�k�k��,6.4,��
2015/03/19,08:40,1.837,3.250,3.592,3.237,3.388,1.020,1.743,1.708,�k�k��,7.1,��
2015/03/19,08:50,1.837,3.253,3.597,3.240,3.392,1.023,1.743,1.707,�k�k��,6.3,��
2015/03/19,09:00,1.837,3.258,3.598,3.243,3.393,1.025,1.743,1.708,�k,5.3,��
2015/03/19,09:10,1.840,3.258,3.600,3.247,3.400,1.022,1.745,1.710,�k�k��,6.5,��
2015/03/19,09:20,1.840,3.262,3.603,3.247,3.405,1.025,1.743,1.710,�k,5.2,��
2015/03/19,09:30,1.842,3.262,3.598,3.247,3.403,1.023,1.743,1.708,�k,5.0,��
2015/03/19,09:40,1.842,3.268,3.610,3.247,3.410,1.023,1.748,1.710,�k,4.7,��
2015/03/19,09:50,1.842,3.275,3.612,3.248,3.417,1.023,1.747,1.712,�k,5.2,��
2015/03/19,10:00,1.843,3.273,3.615,3.248,3.417,1.023,1.750,1.712,�k,4.9,��
2015/03/19,10:10,1.843,3.273,3.618,3.250,3.420,-,1.748,1.712,�k,4.9,��
2015/03/19,10:20,1.843,3.275,3.620,3.250,3.418,-,1.747,1.710,�k�k��,4.6,��
2015/03/19,10:30,1.843,3.280,3.620,3.253,3.423,-,1.752,1.710,�k,3.6,��
2015/03/19,10:40,1.845,3.278,3.618,3.260,3.425,-,1.750,1.710,�k�k��,3.8,��
2015/03/19,10:50,1.842,3.282,3.627,3.260,3.430,1.025,1.750,1.712,�k,3.7,��
2015/03/19,11:00,1.847,3.283,3.628,3.263,3.435,1.027,1.752,1.712,�k,3.8,��
2015/03/19,11:10,1.850,3.285,3.630,3.263,3.435,1.027,1.757,1.712,�k�k��,3.8,��
2015/03/19,11:20,1.850,3.288,3.630,3.265,3.437,1.023,1.752,1.712,�k,4.0,��
2015/03/19,11:30,1.848,3.288,3.637,3.267,3.440,1.027,1.753,1.715,�k,4.0,��
2015/03/19,11:40,1.850,3.290,3.638,3.265,3.445,1.027,1.757,1.717,�k,4.5,��
2015/03/19,11:50,1.853,3.292,3.637,3.268,3.450,1.030,1.755,1.715,�k�k��,3.7,��
2015/03/19,12:00,1.852,3.293,3.640,3.270,3.450,1.030,1.758,1.715,�k,4.1,��
2015/03/19,12:10,1.852,3.300,3.642,3.272,3.448,1.028,1.757,1.715,�k,4.4,��
2015/03/19,12:20,1.853,3.297,3.643,3.272,3.452,1.027,1.757,1.717,�k,4.9,��
2015/03/19,12:30,1.852,3.295,3.647,3.275,3.452,1.028,1.758,1.715,�k�k��,6.3,��
2015/03/19,12:40,1.852,3.305,3.647,3.270,3.453,1.027,1.755,1.715,�k,7.1,��
2015/03/19,12:50,1.853,3.298,3.647,3.268,3.450,1.033,1.757,1.715,�k,7.1,��
2015/03/19,13:00,1.852,3.300,3.645,3.277,3.450,1.032,1.758,1.715,�k,7.1,��
2015/03/19,13:10,1.853,3.307,3.648,3.273,3.453,1.033,1.762,1.713,�k,7.4,��
2015/03/19,13:20,1.855,3.303,3.652,3.275,3.457,1.035,1.758,1.717,�k,6.7,��
2015/03/19,13:30,1.855,3.302,3.647,3.277,3.458,1.033,1.758,1.715,�k,6.6,�L
2015/03/19,13:40,1.853,3.303,3.650,3.272,3.458,1.038,1.760,1.715,�k,6.3,�L
2015/03/19,13:50,1.857,3.305,3.650,3.275,3.453,1.037,1.760,1.717,�k,6.4,�L
2015/03/19,14:00,1.857,3.298,3.648,3.273,3.455,1.037,1.760,1.717,�k,6.1,�L
2015/03/19,14:10,1.855,3.290,3.637,3.270,3.448,1.040,1.758,1.713,�k,6.3,�L
2015/03/19,14:20,1.853,3.280,3.622,3.263,3.438,1.035,1.755,1.713,�k,6.9,�L
2015/03/19,14:30,1.852,3.263,3.605,3.262,3.415,1.038,1.755,1.713,�k,6.8,�L
2015/03/19,14:40,1.845,3.242,3.590,3.247,3.398,1.037,1.752,1.710,�k,7.8,�L
2015/03/19,14:50,1.838,3.223,3.573,3.240,3.378,1.033,1.748,1.707,�k,7.1,�L
2015/03/19,15:00,1.833,3.212,3.562,3.227,3.362,1.035,1.747,1.708,�k,6.7,�L
2015/03/19,15:10,1.833,3.207,3.557,3.223,3.355,1.037,1.745,1.710,�k,6.3,�L
2015/03/19,15:20,1.828,3.205,3.557,3.220,3.355,1.037,1.742,1.707,�k,7.8,�L
2015/03/19,15:30,1.828,3.203,3.558,3.217,3.352,1.040,1.742,1.705,�k,8.2,�L
2015/03/19,15:40,1.828,3.207,3.565,3.220,3.357,1.042,1.740,1.707,�k,8.2,�L
2015/03/19,15:50,1.832,3.213,3.565,3.218,3.360,1.040,1.742,1.703,�k,7.5,�L
2015/03/19,16:00,1.833,3.215,3.567,3.220,3.358,1.043,1.742,1.707,�k,8.8,�L
2015/03/19,16:10,1.833,3.218,3.572,3.223,3.360,1.040,1.743,1.705,�k,6.7,�L
2015/03/19,16:20,1.837,3.225,3.582,3.227,3.368,1.043,1.742,1.707,�k�k��,7.7,��
2015/03/19,16:30,1.837,3.228,3.577,3.230,3.368,1.043,1.745,1.707,�k,6.3,��
2015/03/19,16:40,1.835,3.233,3.582,3.230,3.375,1.043,1.745,1.708,�k�k��,6.0,��
2015/03/19,16:50,1.837,3.233,3.588,3.232,3.377,1.045,1.745,1.712,�k,5.6,�L
2015/03/19,17:00,1.835,3.238,3.585,3.238,3.380,1.047,1.745,1.708,�k,5.2,��
2015/03/19,17:10,1.835,3.242,3.588,3.237,3.382,1.043,1.742,1.708,�k,6.0,��
2015/03/19,17:20,1.835,3.242,3.590,3.238,3.385,1.043,1.747,1.710,�k,5.4,��
2015/03/19,17:30,1.838,3.242,3.592,3.240,3.390,1.043,1.747,1.708,�k,5.8,��
2015/03/19,17:40,1.838,3.247,3.593,3.240,3.393,1.042,1.748,1.707,�k,6.1,��
2015/03/19,17:50,1.837,3.250,3.597,3.240,3.387,1.042,1.747,1.708,�k,6.6,��
2015/03/19,18:00,1.837,3.248,3.595,3.240,3.392,1.045,1.748,1.708,�k,6.0,��
2015/03/19,18:10,1.838,3.250,3.598,3.240,3.398,1.045,1.747,1.710,�k,6.3,��
2015/03/19,18:20,1.837,3.250,3.595,3.240,3.400,1.045,1.745,1.710,�k,6.3,��
2015/03/19,18:30,1.837,3.255,3.597,3.242,3.400,1.045,1.748,1.708,�k,6.7,��
2015/03/19,18:40,1.838,3.257,3.598,3.242,3.397,1.045,1.748,1.710,�k,6.3,��
2015/03/19,18:50,1.838,3.258,3.602,3.245,3.403,1.047,1.748,1.707,�k,6.8,��
2015/03/19,19:00,1.840,3.260,3.603,3.243,3.402,1.047,1.750,1.710,�k,6.9,��
2015/03/19,19:10,1.842,3.262,3.603,3.248,3.403,1.047,1.752,1.712,�k,7.2,��
2015/03/19,19:20,1.840,3.257,3.610,3.247,3.408,1.047,1.750,1.712,�k,7.1,��
2015/03/19,19:30,1.838,3.260,3.607,3.245,3.410,1.047,1.752,1.707,�k,7.1,��
2015/03/19,19:40,1.842,3.258,3.607,3.247,3.413,1.045,1.750,1.710,�k,6.7,��
2015/03/19,19:50,1.843,3.263,3.607,3.250,3.413,1.050,1.750,1.708,�k,7.5,��
2015/03/19,20:00,1.842,3.262,3.608,3.247,3.412,1.048,1.747,1.710,�k,7.1,��
2015/03/19,20:10,1.842,3.265,3.608,3.247,3.412,1.048,1.748,1.710,�k,7.1,��
2015/03/19,20:20,1.843,3.268,3.610,3.252,3.413,1.047,1.750,1.710,�k,6.7,��
2015/03/19,20:30,1.842,3.267,3.615,3.247,3.413,1.052,1.750,1.712,�k,6.1,��
2015/03/19,20:40,1.840,3.268,3.613,3.250,3.412,1.048,1.753,1.712,�k,6.5,��
2015/03/19,20:50,1.840,3.270,3.618,3.252,3.417,1.048,1.753,1.712,�k,5.5,��
2015/03/19,21:00,1.842,3.268,3.617,3.253,3.422,1.052,1.752,1.713,�k�k��,6.4,��
2015/03/19,21:10,1.842,3.270,3.617,3.253,3.420,1.048,1.752,1.713,�k,6.0,��
2015/03/19,21:20,1.840,3.272,3.613,3.252,3.418,1.048,1.752,1.713,�k,6.7,��
2015/03/19,21:30,1.845,3.270,3.615,3.252,3.423,1.050,1.753,1.712,�k,7.1,��
2015/03/19,21:40,1.840,3.272,3.613,3.252,3.423,1.048,1.752,1.713,�k,6.5,��
2015/03/19,21:50,1.842,3.272,3.615,3.250,3.428,1.048,1.752,1.710,�k,5.6,��
2015/03/19,22:00,1.843,3.273,3.618,3.250,3.425,1.047,1.753,1.713,�k,5.8,��
2015/03/19,22:10,1.843,3.277,3.617,3.252,3.427,1.048,1.753,1.712,�k�k��,6.7,��
2015/03/19,22:20,1.843,3.275,3.612,3.253,3.428,1.052,1.752,1.710,�k�k��,7.1,��
2015/03/19,22:30,1.843,3.277,3.615,3.252,3.427,1.048,1.752,1.712,�k�k��,7.4,��
2015/03/19,22:40,1.843,3.275,3.615,3.255,3.428,1.047,1.752,1.712,�k,7.4,��
2015/03/19,22:50,1.842,3.277,3.617,3.255,3.427,1.050,1.752,1.712,�k,8.5,��
2015/03/19,23:00,1.843,3.275,3.617,3.257,3.428,1.048,1.752,1.708,�k,6.9,��
2015/03/19,23:10,1.842,3.277,3.615,3.257,3.428,1.048,1.753,1.710,�k,7.7,��
2015/03/19,23:20,1.843,3.275,3.617,3.253,3.430,1.050,1.755,1.712,�k,7.4,��
2015/03/19,23:30,1.843,3.278,3.620,3.257,3.425,1.048,1.752,1.712,�k,7.4,��
2015/03/19,23:40,1.842,3.280,3.622,3.258,3.430,1.048,1.753,1.712,�k,7.4,��
2015/03/19,23:50,1.845,3.280,3.620,3.258,3.430,1.045,1.753,1.713,�k,7.7,��
